Find Starlink 31851

NORAD ID: 59844 Int'l Des: 2024-097 Owner: SPXS Country: US Constellation: starlink operational
LEOCIRCULAR

現在のビュー

3D地球を読み込み中...

About Starlink 31851

Starlink 31851 (NORAD 59844) is a starlink constellation satellite (v2 mini) launched May 23, 2024 by SPXS of US. It operates in LEO, CIRCULAR orbit with a mass of 730.00 kg.

次回通過

Passes for default location (London). Set your location on the main map for personalized predictions.

高度履歴

Loading altitude history...

軌道要素

1 59844U 24097K 26264.03082335 .00000299 00000-0 20396-4 0 9990
2 59844 43.0029 251.0136 0001297 268.4287 91.6416 15.27577784131795
Epoch: Sep 21, 2026 • Age: 12 hours

現在のステータス

高度 495.3 km
遠地点 / 近地点 N/A
速度 7.62 km/s
衛星直下点 -42.62°S, 25.23°W
打ち上げ日 May 23, 2024
運用期間 2.3 years
タイプ internet

技術仕様

分類 Payload
質量 730.00 kg
乾燥質量 700.00 kg
長さ 0.30 m
スパン 29.00 m
形状 ? Box + pan
製造者 SPXS
バスタイプ Starlink V2M
フェーズステータス In Orbit
所有者/国 SPXS/US

Most Searched